Tracking 29892 objects as of 21-Nov-2024
HD Live streaming from Space Station
objects crossing your sky now

NOAA 16 DEB

Track NOAA 16 DEB now!
10-day predictions


NORAD ID: 41287
Int'l Code: 2000-055GP
Perigee: 810.0 km
Apogee: 858.9 km
Inclination: 98.9 °
Period: 101.4 minutes
Semi major axis: 7205 km
RCS: Unknown
Launch date: September 21, 2000
Source: United States (US)
Launch site: AIR FORCE WESTERN TEST RANGE (AFWTR)

Note: This is SATELLITE DEBRIS
Your satellite tracking list
Your tracking list is empty




NASA's NSSDC Master Catalog

Two Line Element Set (TLE):
1 41287U 00055GP  24324.38481514  .00008188  00000-0  38871-2 0  9995
2 41287  98.8793  21.7479 0033903  96.1256 264.3784 14.19422183457415
Source of the keplerian elements: AFSPC